Satellite: OO-38
Catalog number: 26063
Epoch time:      07342.24217371
Element set:      79
Inclination:      100.2196 deg
RA of node:       016.9658 deg
Eccentricity:    0.0037163
Arg of perigee:   030.4493 deg
Mean anomaly:     329.8836 deg
Mean motion:   14.35821795 rev/day
Decay rate:       -2.0e-07 rev/day^2
Epoch rev:           41202
Checksum:              291

Satellite: ISS
Catalog number: 25544
Epoch time:      07342.42515321
Element set:     478
Inclination:      051.6397 deg
RA of node:       285.5467 deg
Eccentricity:    0.0000509
Arg of perigee:   304.8744 deg
Mean anomaly:     155.0484 deg
Mean motion:   15.77161320 rev/day
Decay rate:     1.9413e-04 rev/day^2
Epoch rev:           51826
Checksum:              297

Satellite: PO-34
Catalog number: 25520
Epoch time:      07342.24548563
Element set:     883
Inclination:      028.4603 deg
RA of node:       023.7146 deg
Eccentricity:    0.0004935
Arg of perigee:   352.2459 deg
Mean anomaly:     007.8056 deg
Mean motion:   15.17093696 rev/day
Decay rate:       4.11e-06 rev/day^2
Epoch rev:           50398
Checksum:              304

Satellite: UARS
Catalog number: 21701
Epoch time:      07341.88562441
Element set:     235
Inclination:      056.9746 deg
RA of node:       279.2859 deg
Eccentricity:    0.0091262
Arg of perigee:   164.3886 deg
Mean anomaly:     196.0024 deg
Mean motion:   15.49804959 rev/day
Decay rate:      2.795e-05 rev/day^2
Epoch rev:           89266
Checksum:              347

Satellite: HUBBLE
Catalog number: 20580
Epoch time:      07341.83391998
Element set:      22
Inclination:      028.4664 deg
RA of node:       137.7282 deg
Eccentricity:    0.0003775
Arg of perigee:   140.1147 deg
Mean anomaly:     219.9725 deg
Mean motion:   15.00310668 rev/day
Decay rate:       3.07e-06 rev/day^2
Epoch rev:           76606
Checksum:              293

/EX





More information about the Keps mailing list